Weather History for Managua, Nicaragua

Change the Weather History Date:

Wednesday, November 21, 2012

  Actual Average Record
Temperature  
Mean Temperature 81 °F -  
Max Temperature 91 °F 87 °F 91 °F (2000)
Min Temperature 71 °F 69 °F 64 °F (1999)
Cooling Degree Days 16    
Growing Degree Days 31 (Base 50)    
Moisture  
Dew Point 67 °F    
Average Humidity 64    
Maximum Humidity 83    
Minimum Humidity 43    
Precipitation  
Precipitation 0.00 in - - ()
Sea Level Pressure  
Sea Level Pressure 29.85 in    
Wind  
Wind Speed 4 mph ()    
Max Wind Speed 16 mph    
Max Gust Speed -    
Visibility 6.2 miles    
Events      
Averages and records for this station are not official NWS values.
T = Trace of Precipitation, MM = Missing Value Source: Averaged Metar Reports

Daily Weather History Graph

Daily Weather History Graph

Search for Another Location

Airport:

Trip Planner

Search our weather history database for the weather conditions in past years. The results will help you decide how hot, cold, wet, or windy it might be!

Date:

Astronomy

Nov. 21, 2012 Rise Set
Actual Time 5:45 AM CST 5:16 PM CST
Civil Twilight 5:22 AM CST 5:38 PM CST
Nautical Twilight 4:56 AM CST 6:04 PM CST
Astronomical Twilight 4:30 AM CST 6:30 PM CST
Moon 12:35 PM CST (11/21) 12:06 AM CST (11/21)
Length of Visible Light 12h 16m
Length of Day
11h 31m
First Quarter, 62% of the Moon is Illuminated
Nov 21
First Quarter
Nov 28
Full
Dec 6
Last Quarter
Dec 13
New
Dec 19
First Quarter

Hourly Weather History & Observations

Time (CST) Temp. Heat Index Dew Point Humidity Pressure Visibility Wind Dir Wind Speed Gust Speed Precip Events Conditions
12:00 AM 77.0 °F - 69.8 °F 78% 29.86 in 6.2 mi East 4.6 mph - N/A   Partly Cloudy
1:00 AM 75.2 °F - 68.0 °F 78% 29.86 in 6.2 mi Calm Calm - N/A   Partly Cloudy
2:00 AM 73.4 °F - 68.0 °F 83% 29.83 in 6.2 mi Calm Calm - N/A   Partly Cloudy
3:00 AM 73.4 °F - 68.0 °F 83% 29.83 in 6.2 mi Calm Calm - N/A   Partly Cloudy
5:00 AM 73.4 °F - 68.0 °F 83% 29.83 in 6.2 mi Calm Calm - N/A   Partly Cloudy
6:00 AM 71.6 °F - 66.2 °F 83% 29.83 in 6.2 mi SE 4.6 mph - N/A   Scattered Clouds
7:00 AM 75.2 °F - 68.0 °F 78% 29.86 in 6.2 mi SE 4.6 mph - N/A   Mostly Cloudy
8:00 AM 82.4 °F 84.6 °F 66.2 °F 58% 29.89 in 6.2 mi ESE 4.6 mph - N/A   Scattered Clouds
9:00 AM 86.0 °F 88.2 °F 66.2 °F 51% 29.89 in 6.2 mi NE 4.6 mph - N/A   Partly Cloudy
10:00 AM 87.8 °F 90.4 °F 66.2 °F 49% 29.89 in 6.2 mi East 9.2 mph - N/A   Partly Cloudy
11:00 AM 87.8 °F 91.4 °F 68.0 °F 52% 29.86 in 6.2 mi ENE 4.6 mph - N/A   Scattered Clouds
12:00 PM 91.4 °F 94.0 °F 66.2 °F 43% 29.83 in 6.2 mi NE 11.5 mph - N/A   Scattered Clouds
1:00 PM 91.4 °F 95.4 °F 68.0 °F 46% 29.80 in 6.2 mi East 11.5 mph - N/A   Scattered Clouds
2:00 PM 89.6 °F 92.2 °F 66.2 °F 46% 29.80 in 6.2 mi NE 16.1 mph - N/A   Scattered Clouds
3:00 PM 89.6 °F 92.2 °F 66.2 °F 46% 29.80 in 6.2 mi East 9.2 mph - N/A   Scattered Clouds
4:00 PM 87.8 °F 90.4 °F 66.2 °F 49% 29.80 in 6.2 mi East 6.9 mph - N/A   Scattered Clouds
5:00 PM 84.2 °F 86.6 °F 66.2 °F 55% 29.80 in 6.2 mi East 11.5 mph - N/A   Scattered Clouds
6:00 PM 82.4 °F 84.6 °F 66.2 °F 58% 29.83 in 6.2 mi East 4.6 mph - N/A   Scattered Clouds
7:00 PM 80.6 °F 83.2 °F 68.0 °F 65% 29.86 in 6.2 mi East 6.9 mph - N/A   Scattered Clouds
8:00 PM 78.8 °F - 68.0 °F 69% 29.89 in 6.2 mi SE 4.6 mph - N/A   Scattered Clouds
9:00 PM 77.0 °F - 68.0 °F 74% 29.92 in 6.2 mi East 4.6 mph - N/A   Scattered Clouds
10:00 PM 77.0 °F - 68.0 °F 74% 29.92 in 6.2 mi Calm Calm - N/A   Scattered Clouds
11:00 PM 75.2 °F - 68.0 °F 78% 29.92 in 6.2 mi Calm Calm - N/A   Scattered Clouds